Location: Passau
(48.5830°N, 13.4830°E)
Time: 00:22:31
(UTC+02:00)

Courier 1B - Pass Details

Date: 03 August 2021
Orbit: 963 x 1209 km, 28.3° (Epoch: 17 September)

Event Time Altitude Azimuth Distance (km) Brightness Sun altitude
Rises 22:41:50 0° 244° (WSW) 4,095 10.9 -16.1°
Reaches altitude 10° 22:46:53 10° 217° (SW) 3,099 9.9 -16.6°
Maximum altitude 22:49:40 12° 195° (SSW) 2,906 9.6 -16.9°
Enters shadow 22:50:30 12° 188° (S) 2,913 9.6 -17.0°
